This is the latest recevied weather packets stored in our database for station/object G7GQA-4. If no packets are shown the sender has not sent any weather packets the latest 10 day(s).
| Time | Temp. | Humidity | Pressure | Rain* | Wind** | Luminosity | Snow |
|---|---|---|---|---|---|---|---|
| 1777497330 | 11.67° C | 54% | - | 0 mm | - | 0 W/m² | - |
| 1777496730 | 11.67° C | 53% | - | 0 mm | - | 0 W/m² | - |
| 1777496130 | 12.22° C | 51% | - | 0 mm | - | 0 W/m² | - |
| 1777495530 | 12.22° C | 51% | - | 0 mm | - | 0 W/m² | - |
| 1777494930 | 12.22° C | 50% | - | 0 mm | - | 0 W/m² | - |
| 1777494330 | 12.78° C | 49% | - | 0 mm | - | 0 W/m² | - |
| 1777493730 | 12.78° C | 47% | - | 0 mm | - | 0 W/m² | - |
| 1777493130 | 12.78° C | 46% | - | 0 mm | - | 0 W/m² | - |
| 1777492530 | 12.78° C | 45% | - | 0 mm | - | 0 W/m² | - |
| 1777491930 | 12.78° C | 45% | - | 0 mm | - | 1 W/m² | - |
| 1777491330 | 13.33° C | 44% | - | 0 mm | - | 3 W/m² | - |
| 1777490730 | 13.89° C | 43% | - | 0 mm | - | 5 W/m² | - |
| 1777490130 | 13.89° C | 41% | - | 0 mm | - | 9 W/m² | - |
| 1777489530 | 14.44° C | 40% | - | 0 mm | - | 15 W/m² | - |
| 1777488930 | 14.44° C | 38% | - | 0 mm | - | 23 W/m² | - |
| 1777488329 | 15° C | 37% | - | 0 mm | - | 31 W/m² | - |
| 1777487729 | 15° C | 37% | - | 0 mm | - | 37 W/m² | - |
| 1777487129 | 15.56° C | 35% | - | 0 mm | - | 42 W/m² | - |
| 1777486529 | 16.11° C | 34% | - | 0 mm | - | 46 W/m² | - |
| 1777485929 | 16.11° C | 31% | - | 0 mm | - | 50 W/m² | - |
| 1777485329 | 16.11° C | 30% | - | 0 mm | - | 54 W/m² | - |
| 1777484729 | 16.67° C | 29% | - | 0 mm | - | 60 W/m² | - |
| 1777484129 | 16.67° C | 29% | - | 0 mm | - | 66 W/m² | - |
| 1777483529 | 17.22° C | 30% | - | 0 mm | - | 72 W/m² | - |
| 1777482929 | 17.22° C | 29% | - | 0 mm | - | 94 W/m² | - |
* Rain latest hour (hover to see other rain measurements)
** Current wind speed in m/s (hover to see current wind gust speed)